When you browse on this site, cookies collect data to enhance your experience and personalize the content and advertising you see.
Visit our Privacy Policy to learn more. By continuing to use the site, you agree to this use of cookies and data.
  • In Germany
  • List of Countries
  • For 7 days
  • Water Temperature
  • Weather Map
  • Weather Widgets
  • user-avatar
    Login

    Hourly Weather Estelí

    Today, 31 March, Tuesday

    Time Temperature Precipitation Wind Pressure Humidity
    00:00 +19°C° 0 mm 2 mps 686 mmHg 89%
    01:00 +19°C° 0 mm 2 mps 686 mmHg 89%
    02:00 +19°C° 0 mm 2 mps 685 mmHg 90%
    03:00 +19°C° 0 mm 2 mps 685 mmHg 91%
    04:00 +18°C° 0 mm 2 mps 685 mmHg 92%
    05:00 +19°C° 0 mm 1 mps 685 mmHg 93%
    06:00 +19°C° 0 mm 1 mps 685 mmHg 94%
    07:00 +21°C° 0 mm 2 mps 686 mmHg 74%
    08:00 +26°C° 0 mm 2 mps 688 mmHg 55%
    09:00 +29°C° 0 mm 2 mps 689 mmHg 35%
    10:00 +31°C° 0 mm 2 mps 688 mmHg 30%
    11:00 +34°C° 0 mm 2 mps 688 mmHg 25%
    12:00 +37°C° 0 mm 2 mps 688 mmHg 20%
    13:00 +37°C° 0 mm 2 mps 687 mmHg 20%
    14:00 +37°C° 0 mm 3 mps 686 mmHg 20%
    15:00 +37°C° 0 mm 3 mps 685 mmHg 20%
    16:00 +35°C° 0 mm 3 mps 685 mmHg 28%
    17:00 +31°C° 0 mm 3 mps 685 mmHg 36%
    18:00 +29°C° 0 mm 3 mps 685 mmHg 44%
    19:00 +27°C° 0 mm 2 mps 685 mmHg 54%
    20:00 +25°C° 0 mm 1 mps 685 mmHg 64%
    21:00 +23°C° 0 mm 1 mps 685 mmHg 75%
    22:00 +20°C° 0 mm 0 mps 685 mmHg 79%
    23:00 +20°C° 0 mm 0 mps 685 mmHg 83%

    Tomorrow, 1 April, Wednesday

    Time Temperature Precipitation Wind Pressure Humidity
    00:00 +19°C° 0 mm 0 mps 685 mmHg 87%
    01:00 +19°C° 0 mm 0 mps 685 mmHg 88%
    02:00 +18°C° 0 mm 0 mps 684 mmHg 89%
    03:00 +20°C° 0 mm 1 mps 684 mmHg 91%
    04:00 +20°C° 0 mm 1 mps 684 mmHg 91%
    05:00 +20°C° 0 mm 1 mps 685 mmHg 91%
    06:00 +20°C° 0 mm 1 mps 685 mmHg 91%
    07:00 +23°C° 0 mm 1 mps 686 mmHg 76%
    08:00 +27°C° 0 mm 1 mps 687 mmHg 62%
    09:00 +31°C° 0 mm 1 mps 689 mmHg 47%
    10:00 +32°C° 0 mm 1 mps 688 mmHg 44%
    11:00 +32°C° 0 mm 1 mps 687 mmHg 40%
    12:00 +34°C° 0 mm 2 mps 687 mmHg 37%
    13:00 +32°C° 0.1 mm 1 mps 686 mmHg 40%
    14:00 +31°C° 0.1 mm 1 mps 685 mmHg 43%
    15:00 +30°C° 0.1 mm 1 mps 684 mmHg 46%
    16:00 +28°C° 0.5 mm 1 mps 684 mmHg 54%
    17:00 +26°C° 0.5 mm 1 mps 684 mmHg 62%
    18:00 +25°C° 0.5 mm 1 mps 684 mmHg 70%
    19:00 +24°C° 0.5 mm 1 mps 685 mmHg 72%
    20:00 +24°C° 0.5 mm 1 mps 686 mmHg 74%
    21:00 +24°C° 0.5 mm 1 mps 686 mmHg 76%
    22:00 +23°C° 0 mm 1 mps 686 mmHg 79%
    23:00 +22°C° 0 mm 1 mps 686 mmHg 81%

    Day after tomorrow, 2 April, Thursday

    Time Temperature Precipitation Wind Pressure Humidity
    00:00 +22°C° 0 mm 1 mps 686 mmHg 83%
    01:00 +22°C° 0 mm 1 mps 686 mmHg 84%
    02:00 +21°C° 0 mm 1 mps 685 mmHg 86%
    03:00 +21°C° 0 mm 1 mps 685 mmHg 88%
    04:00 +21°C° 0 mm 1 mps 685 mmHg 88%
    05:00 +20°C° 0 mm 1 mps 686 mmHg 89%
    06:00 +20°C° 0 mm 1 mps 686 mmHg 90%
    07:00 +23°C° 0 mm 1 mps 687 mmHg 77%
    08:00 +26°C° 0 mm 1 mps 688 mmHg 65%
    09:00 +29°C° 0 mm 1 mps 688 mmHg 53%
    10:00 +30°C° 0 mm 1 mps 688 mmHg 48%
    11:00 +31°C° 0 mm 1 mps 687 mmHg 42%
    12:00 +32°C° 0 mm 1 mps 687 mmHg 37%
    13:00 +32°C° 0 mm 1 mps 686 mmHg 37%
    14:00 +31°C° 0 mm 1 mps 685 mmHg 37%
    15:00 +31°C° 0 mm 1 mps 685 mmHg 37%
    16:00 +30°C° 0 mm 1 mps 684 mmHg 41%
    17:00 +28°C° 0 mm 1 mps 684 mmHg 46%
    18:00 +27°C° 0 mm 1 mps 684 mmHg 51%
    19:00 +26°C° 0 mm 1 mps 685 mmHg 57%
    20:00 +25°C° 0 mm 1 mps 685 mmHg 62%
    21:00 +23°C° 0 mm 1 mps 686 mmHg 68%
    22:00 +23°C° 0.1 mm 1 mps 686 mmHg 72%
    23:00 +22°C° 0.1 mm 1 mps 686 mmHg 75%

    3 April, Friday

    Time Temperature Precipitation Wind Pressure Humidity
    00:00 +21°C° 0.1 mm 1 mps 686 mmHg 79%
    01:00 +21°C° 0 mm 1 mps 686 mmHg 79%
    02:00 +20°C° 0 mm 1 mps 685 mmHg 78%
    03:00 +20°C° 0 mm 1 mps 685 mmHg 78%
    04:00 +20°C° 0 mm 1 mps 685 mmHg 80%
    05:00 +19°C° 0 mm 1 mps 686 mmHg 81%
    06:00 +19°C° 0 mm 1 mps 686 mmHg 83%
    07:00 +22°C° 0 mm 1 mps 687 mmHg 69%
    08:00 +26°C° 0 mm 1 mps 688 mmHg 55%
    09:00 +29°C° 0 mm 1 mps 689 mmHg 42%
    10:00 +32°C° 0 mm 1 mps 688 mmHg 35%
    11:00 +35°C° 0 mm 2 mps 688 mmHg 29%
    12:00 +37°C° 0 mm 2 mps 688 mmHg 23%
    13:00 +37°C° 0 mm 2 mps 687 mmHg 22%
    14:00 +37°C° 0 mm 3 mps 686 mmHg 21%
    15:00 +37°C° 0 mm 3 mps 685 mmHg 21%
    16:00 +35°C° 0 mm 3 mps 685 mmHg 27%
    17:00 +31°C° 0 mm 3 mps 685 mmHg 33%
    18:00 +29°C° 0 mm 3 mps 684 mmHg 40%
    19:00 +27°C° 0 mm 2 mps 685 mmHg 49%
    20:00 +25°C° 0 mm 1 mps 685 mmHg 59%
    21:00 +23°C° 0 mm 1 mps 686 mmHg 69%
    22:00 +23°C° 0 mm 1 mps 685 mmHg 71%
    23:00 +22°C° 0 mm 1 mps 685 mmHg 73%

    4 April, Saturday

    Time Temperature Precipitation Wind Pressure Humidity
    00:00 +19°C° 0 mm 0 mps 685 mmHg 76%
    01:00 +21°C° 0 mm 1 mps 685 mmHg 74%
    02:00 +21°C° 0 mm 1 mps 685 mmHg 73%
    03:00 +21°C° 0 mm 1 mps 685 mmHg 72%
    04:00 +20°C° 0 mm 1 mps 685 mmHg 73%
    05:00 +20°C° 0 mm 1 mps 685 mmHg 74%
    06:00 +19°C° 0 mm 1 mps 685 mmHg 75%
    07:00 +23°C° 0 mm 1 mps 686 mmHg 62%
    08:00 +26°C° 0 mm 1 mps 687 mmHg 50%
    09:00 +30°C° 0 mm 1 mps 688 mmHg 38%
    10:00 +32°C° 0 mm 2 mps 688 mmHg 33%
    11:00 +35°C° 0 mm 2 mps 688 mmHg 27%
    12:00 +37°C° 0 mm 3 mps 687 mmHg 21%
    13:00 +37°C° 0 mm 3 mps 687 mmHg 20%
    14:00 +37°C° 0 mm 3 mps 686 mmHg 20%
    15:00 +37°C° 0 mm 3 mps 685 mmHg 19%
    16:00 +34°C° 0 mm 3 mps 685 mmHg 26%
    17:00 +31°C° 0 mm 2 mps 684 mmHg 32%
    18:00 +28°C° 0 mm 2 mps 684 mmHg 39%
    19:00 +27°C° 0 mm 1 mps 684 mmHg 46%
    20:00 +25°C° 0 mm 1 mps 685 mmHg 54%
    21:00 +23°C° 0 mm 1 mps 685 mmHg 62%
    22:00 +22°C° 0 mm 1 mps 685 mmHg 65%
    23:00 +22°C° 0 mm 1 mps 685 mmHg 68%

    5 April, Sunday

    Time Temperature Precipitation Wind Pressure Humidity
    00:00 +19°C° 0 mm 0 mps 685 mmHg 71%
    01:00 +20°C° 0 mm 1 mps 685 mmHg 73%
    02:00 +20°C° 0 mm 1 mps 685 mmHg 75%
    03:00 +19°C° 0 mm 1 mps 684 mmHg 77%
    04:00 +19°C° 0 mm 1 mps 685 mmHg 79%
    05:00 +19°C° 0 mm 1 mps 685 mmHg 82%
    06:00 +19°C° 0 mm 1 mps 685 mmHg 84%
    07:00 +22°C° 0 mm 1 mps 686 mmHg 71%
    08:00 +25°C° 0 mm 1 mps 687 mmHg 57%
    09:00 +29°C° 0 mm 1 mps 688 mmHg 43%
    10:00 +31°C° 0 mm 2 mps 688 mmHg 36%
    11:00 +34°C° 0 mm 2 mps 688 mmHg 29%
    12:00 +36°C° 0 mm 3 mps 688 mmHg 22%
    13:00 +36°C° 0 mm 3 mps 687 mmHg 22%
    14:00 +36°C° 0 mm 3 mps 686 mmHg 21%
    15:00 +37°C° 0 mm 4 mps 685 mmHg 21%
    16:00 +34°C° 0 mm 3 mps 685 mmHg 26%
    17:00 +31°C° 0 mm 3 mps 685 mmHg 31%
    18:00 +29°C° 0 mm 3 mps 685 mmHg 36%
    19:00 +27°C° 0 mm 2 mps 686 mmHg 43%
    20:00 +25°C° 0 mm 1 mps 686 mmHg 50%
    21:00 +23°C° 0 mm 1 mps 686 mmHg 57%
    22:00 +23°C° 0 mm 1 mps 686 mmHg 62%
    23:00 +22°C° 0 mm 1 mps 686 mmHg 66%
    Show more